Year,Month,Day,Hour,Minute,Value (Times are PST for temperature in C)
2018,10,13,00,00,10.20
2018,10,13,00,01,10.20
2018,10,13,00,02,10.20
2018,10,13,00,03,10.20
2018,10,13,00,04,10.20
2018,10,13,00,05,10.20
2018,10,13,00,06,10.20
2018,10,13,00,07,10.20
2018,10,13,00,08,10.20
2018,10,13,00,09,10.20
2018,10,13,00,10,10.20
2018,10,13,00,11,10.20
2018,10,13,00,12,10.20
2018,10,13,00,13,10.20
2018,10,13,00,14,10.20
2018,10,13,00,15,10.10
2018,10,13,00,16,10.10
2018,10,13,00,17,10.10
2018,10,13,00,18,10.10
2018,10,13,00,19,10.10
2018,10,13,00,20,10.10
2018,10,13,00,21,10.20
2018,10,13,00,22,10.20
2018,10,13,00,23,10.20
2018,10,13,00,24,10.20
2018,10,13,00,25,10.10
2018,10,13,00,26,10.10
2018,10,13,00,27,10.10
2018,10,13,00,28,10.10
2018,10,13,00,29,10.10
2018,10,13,00,30,10.10
2018,10,13,00,31,10.00
2018,10,13,00,32,10.00
2018,10,13,00,33,10.00
2018,10,13,00,34,10.00
2018,10,13,00,35,10.00
2018,10,13,00,36,10.00
2018,10,13,00,37,9.90
2018,10,13,00,38,9.90
2018,10,13,00,39,9.90
2018,10,13,00,40,9.90
2018,10,13,00,41,9.90
2018,10,13,00,42,9.90
2018,10,13,00,43,9.90
2018,10,13,00,44,9.90
2018,10,13,00,45,9.90
2018,10,13,00,46,9.90
2018,10,13,00,47,9.90
2018,10,13,00,48,9.90
2018,10,13,00,49,9.90
2018,10,13,00,50,9.90
2018,10,13,00,51,9.90
2018,10,13,00,52,9.90
2018,10,13,00,53,9.90
2018,10,13,00,54,9.90
2018,10,13,00,55,9.90
2018,10,13,00,56,9.90
2018,10,13,00,57,9.90
2018,10,13,00,58,9.90
2018,10,13,00,59,9.90
2018,10,13,01,00,9.90
2018,10,13,01,01,9.90
2018,10,13,01,02,9.90
2018,10,13,01,03,9.90
2018,10,13,01,04,9.90
2018,10,13,01,05,9.90
2018,10,13,01,06,9.90
2018,10,13,01,07,9.80
2018,10,13,01,08,9.80
2018,10,13,01,09,9.80
2018,10,13,01,10,9.80
2018,10,13,01,11,9.80
2018,10,13,01,12,9.80
2018,10,13,01,13,9.80
2018,10,13,01,14,9.70
2018,10,13,01,15,9.70
2018,10,13,01,16,9.70
2018,10,13,01,17,9.70
2018,10,13,01,18,9.70
2018,10,13,01,19,9.70
2018,10,13,01,20,9.70
2018,10,13,01,21,9.70
2018,10,13,01,22,9.70
2018,10,13,01,23,9.70
2018,10,13,01,24,9.70
2018,10,13,01,25,9.70
2018,10,13,01,26,9.60
2018,10,13,01,27,9.60
2018,10,13,01,28,9.60
2018,10,13,01,29,9.60
2018,10,13,01,30,9.50
2018,10,13,01,31,9.50
2018,10,13,01,32,9.50
2018,10,13,01,33,9.50
2018,10,13,01,34,9.40
2018,10,13,01,35,9.40
2018,10,13,01,36,9.40
2018,10,13,01,37,9.40
2018,10,13,01,38,9.40
2018,10,13,01,39,9.40
2018,10,13,01,40,9.40
2018,10,13,01,41,9.40
2018,10,13,01,42,9.40
2018,10,13,01,43,9.40
2018,10,13,01,44,9.40
2018,10,13,01,45,9.40
2018,10,13,01,46,9.40
2018,10,13,01,47,9.40
2018,10,13,01,48,9.40
2018,10,13,01,49,9.40
2018,10,13,01,50,9.40
2018,10,13,01,51,9.40
2018,10,13,01,52,9.40
2018,10,13,01,53,9.50
2018,10,13,01,54,9.50
2018,10,13,01,55,9.50
2018,10,13,01,56,9.50
2018,10,13,01,57,9.50
2018,10,13,01,58,9.50
2018,10,13,01,59,9.50
2018,10,13,02,00,9.50
2018,10,13,02,01,9.50
2018,10,13,02,02,9.50
2018,10,13,02,03,9.50
2018,10,13,02,04,9.50
2018,10,13,02,05,9.50
2018,10,13,02,06,9.40
2018,10,13,02,07,9.40
2018,10,13,02,08,9.40
2018,10,13,02,09,9.40
2018,10,13,02,10,9.40
2018,10,13,02,11,9.40
2018,10,13,02,12,9.40
2018,10,13,02,13,9.40
2018,10,13,02,14,9.30
2018,10,13,02,15,9.30
2018,10,13,02,16,9.30
2018,10,13,02,17,9.40
2018,10,13,02,18,9.40
2018,10,13,02,19,9.40
2018,10,13,02,20,9.40
2018,10,13,02,21,9.40
2018,10,13,02,22,9.40
2018,10,13,02,23,9.40
2018,10,13,02,24,9.40
2018,10,13,02,25,9.40
2018,10,13,02,26,9.40
2018,10,13,02,27,9.40
2018,10,13,02,28,9.40
2018,10,13,02,29,9.40
2018,10,13,02,30,9.40
2018,10,13,02,31,9.50
2018,10,13,02,32,9.50
2018,10,13,02,33,9.50
2018,10,13,02,34,9.50
2018,10,13,02,35,9.50
2018,10,13,02,36,9.50
2018,10,13,02,37,9.50
2018,10,13,02,38,9.50
2018,10,13,02,39,9.50
2018,10,13,02,40,9.40
2018,10,13,02,41,9.40
2018,10,13,02,42,9.40
2018,10,13,02,43,9.40
2018,10,13,02,44,9.40
2018,10,13,02,45,9.40
2018,10,13,02,46,9.40
2018,10,13,02,47,9.30
2018,10,13,02,48,9.30
2018,10,13,02,49,9.30
2018,10,13,02,50,9.30
2018,10,13,02,51,9.30
2018,10,13,02,52,9.30
2018,10,13,02,53,9.30
2018,10,13,02,54,9.30
2018,10,13,02,55,9.20
2018,10,13,02,56,9.30
2018,10,13,02,57,9.20
2018,10,13,02,58,9.20
2018,10,13,02,59,9.20
2018,10,13,03,00,9.20
2018,10,13,03,01,9.20
2018,10,13,03,02,9.20
2018,10,13,03,03,9.10
2018,10,13,03,04,9.10
2018,10,13,03,05,9.10
2018,10,13,03,06,9.10
2018,10,13,03,07,9.10
2018,10,13,03,08,9.10
2018,10,13,03,09,9.10
2018,10,13,03,10,9.10
2018,10,13,03,11,9.10
2018,10,13,03,12,9.10
2018,10,13,03,13,9.10
2018,10,13,03,14,9.10
2018,10,13,03,15,9.10
2018,10,13,03,16,9.10
2018,10,13,03,17,9.10
2018,10,13,03,18,9.00
2018,10,13,03,19,9.00
2018,10,13,03,20,9.00
2018,10,13,03,21,9.00
2018,10,13,03,22,9.00
2018,10,13,03,23,9.00
2018,10,13,03,24,9.00
2018,10,13,03,25,8.90
2018,10,13,03,26,8.90
2018,10,13,03,27,8.90
2018,10,13,03,28,8.90
2018,10,13,03,29,8.90
2018,10,13,03,30,8.90
2018,10,13,03,31,8.90
2018,10,13,03,32,8.90
2018,10,13,03,33,8.90
2018,10,13,03,34,8.90
2018,10,13,03,35,8.80
2018,10,13,03,36,8.80
2018,10,13,03,37,8.80
2018,10,13,03,38,8.80
2018,10,13,03,39,8.80
2018,10,13,03,40,8.80
2018,10,13,03,41,8.70
2018,10,13,03,42,8.70
2018,10,13,03,43,8.70
2018,10,13,03,44,8.70
2018,10,13,03,45,8.70
2018,10,13,03,46,8.70
2018,10,13,03,47,8.70
2018,10,13,03,48,8.70
2018,10,13,03,49,8.70
2018,10,13,03,50,8.70
2018,10,13,03,51,8.60
2018,10,13,03,52,8.60
2018,10,13,03,53,8.60
2018,10,13,03,54,8.60
2018,10,13,03,55,8.60
2018,10,13,03,56,8.60
2018,10,13,03,57,8.60
2018,10,13,03,58,8.60
2018,10,13,03,59,8.50
2018,10,13,04,00,8.50
2018,10,13,04,01,8.50
2018,10,13,04,02,8.40
2018,10,13,04,03,8.40
2018,10,13,04,04,8.40
2018,10,13,04,05,8.40
2018,10,13,04,06,8.40
2018,10,13,04,07,8.40
2018,10,13,04,08,8.40
2018,10,13,04,09,8.40
2018,10,13,04,10,8.30
2018,10,13,04,11,8.40
2018,10,13,04,12,8.30
2018,10,13,04,13,8.30
2018,10,13,04,14,8.30
2018,10,13,04,15,8.30
2018,10,13,04,16,8.30
2018,10,13,04,17,8.20
2018,10,13,04,18,8.20
2018,10,13,04,19,8.20
2018,10,13,04,20,8.20
2018,10,13,04,21,8.20
2018,10,13,04,22,8.10
2018,10,13,04,23,8.10
2018,10,13,04,24,8.10
2018,10,13,04,25,8.10
2018,10,13,04,26,8.10
2018,10,13,04,27,8.00
2018,10,13,04,28,8.00
2018,10,13,04,29,8.00
2018,10,13,04,30,7.90
2018,10,13,04,31,7.90
2018,10,13,04,32,7.90
2018,10,13,04,33,7.90
2018,10,13,04,34,7.90
2018,10,13,04,35,7.80
2018,10,13,04,36,7.80
2018,10,13,04,37,7.80
2018,10,13,04,38,7.80
2018,10,13,04,39,7.80
2018,10,13,04,40,7.70
2018,10,13,04,41,7.70
2018,10,13,04,42,7.70
2018,10,13,04,43,7.70
2018,10,13,04,44,7.70
2018,10,13,04,45,7.70
2018,10,13,04,46,7.60
2018,10,13,04,47,7.60
2018,10,13,04,48,7.60
2018,10,13,04,49,7.60
2018,10,13,04,50,7.60
2018,10,13,04,51,7.60
2018,10,13,04,52,7.50
2018,10,13,04,53,7.50
2018,10,13,04,54,7.50
2018,10,13,04,55,7.50
2018,10,13,04,56,7.40
2018,10,13,04,57,7.40
2018,10,13,04,58,7.40
2018,10,13,04,59,7.40
2018,10,13,05,00,7.30
2018,10,13,05,01,7.30
2018,10,13,05,02,7.30
2018,10,13,05,03,7.30
2018,10,13,05,04,7.30
2018,10,13,05,05,7.30
2018,10,13,05,06,7.30
2018,10,13,05,07,7.30
2018,10,13,05,08,7.30
2018,10,13,05,09,7.30
2018,10,13,05,10,7.30
2018,10,13,05,11,7.30
2018,10,13,05,12,7.20
2018,10,13,05,13,7.20
2018,10,13,05,14,7.20
2018,10,13,05,15,7.20
2018,10,13,05,16,7.20
2018,10,13,05,17,7.10
2018,10,13,05,18,7.10
2018,10,13,05,19,7.10
2018,10,13,05,20,7.10
2018,10,13,05,21,7.10
2018,10,13,05,22,7.00
2018,10,13,05,23,7.00
2018,10,13,05,24,7.00
2018,10,13,05,25,7.00
2018,10,13,05,26,7.00
2018,10,13,05,27,7.00
2018,10,13,05,28,7.00
2018,10,13,05,29,6.90
2018,10,13,05,30,6.90
2018,10,13,05,31,6.90
2018,10,13,05,32,6.90
2018,10,13,05,33,6.80
2018,10,13,05,34,6.80
2018,10,13,05,35,6.80
2018,10,13,05,36,6.80
2018,10,13,05,37,6.80
2018,10,13,05,38,6.80
2018,10,13,05,39,6.80
2018,10,13,05,40,6.80
2018,10,13,05,41,6.70
2018,10,13,05,42,6.70
2018,10,13,05,43,6.70
2018,10,13,05,44,6.70
2018,10,13,05,45,6.70
2018,10,13,05,46,6.70
2018,10,13,05,47,6.70
2018,10,13,05,48,6.60
2018,10,13,05,49,6.60
2018,10,13,05,50,6.60
2018,10,13,05,51,6.60
2018,10,13,05,52,6.60
2018,10,13,05,53,6.60
2018,10,13,05,54,6.60
2018,10,13,05,55,6.70
2018,10,13,05,56,6.70
2018,10,13,05,57,6.70
2018,10,13,05,58,6.70
2018,10,13,05,59,6.70
2018,10,13,06,00,6.70
2018,10,13,06,01,6.70
2018,10,13,06,02,6.70
2018,10,13,06,03,6.70
2018,10,13,06,04,6.70
2018,10,13,06,05,6.70
2018,10,13,06,06,6.70
2018,10,13,06,07,6.70
2018,10,13,06,08,6.70
2018,10,13,06,09,6.70
2018,10,13,06,10,6.70
2018,10,13,06,11,6.70
2018,10,13,06,12,6.70
2018,10,13,06,13,6.70
2018,10,13,06,14,6.60
2018,10,13,06,15,6.60
2018,10,13,06,16,6.60
2018,10,13,06,17,6.60
2018,10,13,06,18,6.60
2018,10,13,06,19,6.60
2018,10,13,06,20,6.60
2018,10,13,06,21,6.60
2018,10,13,06,22,6.60
2018,10,13,06,23,6.60
2018,10,13,06,24,6.60
2018,10,13,06,25,6.60
2018,10,13,06,26,6.60
2018,10,13,06,27,6.60
2018,10,13,06,28,6.60
2018,10,13,06,29,6.60
2018,10,13,06,30,6.70
2018,10,13,06,31,6.70
2018,10,13,06,32,6.70
2018,10,13,06,33,6.70
2018,10,13,06,34,6.70
2018,10,13,06,35,6.70
2018,10,13,06,36,6.70
2018,10,13,06,37,6.70
2018,10,13,06,38,6.70
2018,10,13,06,39,6.70
2018,10,13,06,40,6.70
2018,10,13,06,41,6.60
2018,10,13,06,42,6.60
2018,10,13,06,43,6.60
2018,10,13,06,44,6.60
2018,10,13,06,45,6.60
2018,10,13,06,46,6.60
2018,10,13,06,47,6.60
2018,10,13,06,48,6.60
2018,10,13,06,49,6.60
2018,10,13,06,50,6.50
2018,10,13,06,51,6.50
2018,10,13,06,52,6.50
2018,10,13,06,53,6.40
2018,10,13,06,54,6.40
2018,10,13,06,55,6.40
2018,10,13,06,56,6.40
2018,10,13,06,57,6.40
2018,10,13,06,58,6.40
2018,10,13,06,59,6.40
2018,10,13,07,00,6.40
2018,10,13,07,01,6.40
2018,10,13,07,02,6.40
2018,10,13,07,03,6.40
2018,10,13,07,04,6.40
2018,10,13,07,05,6.40
2018,10,13,07,06,6.40
2018,10,13,07,07,6.40
2018,10,13,07,08,6.40
2018,10,13,07,09,6.40
2018,10,13,07,10,6.30
2018,10,13,07,11,6.30
2018,10,13,07,12,6.30
2018,10,13,07,13,6.30
2018,10,13,07,14,6.30
2018,10,13,07,15,6.20
2018,10,13,07,16,6.20
2018,10,13,07,17,6.20
2018,10,13,07,18,6.20
2018,10,13,07,19,6.20
2018,10,13,07,20,6.10
2018,10,13,07,21,6.10
2018,10,13,07,22,6.10
2018,10,13,07,23,6.10
2018,10,13,07,24,6.00
2018,10,13,07,25,6.00
2018,10,13,07,26,5.90
2018,10,13,07,27,5.90
2018,10,13,07,28,5.90
2018,10,13,07,29,5.90
2018,10,13,07,30,5.90
2018,10,13,07,31,5.80
2018,10,13,07,32,5.80
2018,10,13,07,33,5.80
2018,10,13,07,34,5.80
2018,10,13,07,35,5.80
2018,10,13,07,36,5.80
2018,10,13,07,37,5.70
2018,10,13,07,38,5.70
2018,10,13,07,39,5.70
2018,10,13,07,40,5.70
2018,10,13,07,41,5.70
2018,10,13,07,42,5.70
2018,10,13,07,43,5.70
2018,10,13,07,44,5.70
2018,10,13,07,45,5.60
2018,10,13,07,46,5.60
2018,10,13,07,47,5.60
2018,10,13,07,48,5.60
2018,10,13,07,49,5.60
2018,10,13,07,50,5.50
2018,10,13,07,51,5.50
2018,10,13,07,52,5.40
2018,10,13,07,53,5.40
2018,10,13,07,54,5.40
2018,10,13,07,55,5.40
2018,10,13,07,56,5.40
2018,10,13,07,57,5.40
2018,10,13,07,58,5.40
2018,10,13,07,59,5.40
2018,10,13,08,00,5.40
2018,10,13,08,01,5.40
2018,10,13,08,02,5.30
2018,10,13,08,03,5.30
2018,10,13,08,04,5.30
2018,10,13,08,05,5.30
2018,10,13,08,06,5.30
2018,10,13,08,07,5.20
2018,10,13,08,08,5.20
2018,10,13,08,09,5.20
2018,10,13,08,10,5.10
2018,10,13,08,11,5.10
2018,10,13,08,12,5.10
2018,10,13,08,13,5.10
2018,10,13,08,14,5.10
2018,10,13,08,15,5.10
2018,10,13,08,16,5.10
2018,10,13,08,17,5.10
2018,10,13,08,18,5.20
2018,10,13,08,19,5.20
2018,10,13,08,20,5.20
2018,10,13,08,21,5.20
2018,10,13,08,22,5.20
2018,10,13,08,23,5.30
2018,10,13,08,24,5.30
2018,10,13,08,25,5.30
2018,10,13,08,26,5.30
2018,10,13,08,27,5.30
2018,10,13,08,28,5.30
2018,10,13,08,29,5.30
2018,10,13,08,30,5.30
2018,10,13,08,31,5.30
2018,10,13,08,32,5.30
2018,10,13,08,33,5.30
2018,10,13,08,34,5.30
2018,10,13,08,35,5.40
2018,10,13,08,36,5.40
2018,10,13,08,37,5.40
2018,10,13,08,38,5.40
2018,10,13,08,39,5.40
2018,10,13,08,40,5.40
2018,10,13,08,41,5.40
2018,10,13,08,42,5.40
2018,10,13,08,43,5.40
2018,10,13,08,44,5.40
2018,10,13,08,45,5.40
2018,10,13,08,46,5.40
2018,10,13,08,47,5.40
2018,10,13,08,48,5.40
2018,10,13,08,49,5.50
2018,10,13,08,50,5.50
2018,10,13,08,51,5.50
2018,10,13,08,52,5.50
2018,10,13,08,53,5.50
2018,10,13,08,54,5.60
2018,10,13,08,55,5.60
2018,10,13,08,56,5.60
2018,10,13,08,57,5.60
2018,10,13,08,58,5.70
2018,10,13,08,59,5.70
2018,10,13,09,00,5.70
2018,10,13,09,01,5.70
2018,10,13,09,02,5.70
2018,10,13,09,03,5.80
2018,10,13,09,04,5.80
2018,10,13,09,05,5.80
2018,10,13,09,06,5.80
2018,10,13,09,07,5.90
2018,10,13,09,08,5.90
2018,10,13,09,09,5.90
2018,10,13,09,10,6.00
2018,10,13,09,11,6.10
2018,10,13,09,12,6.10
2018,10,13,09,13,6.20
2018,10,13,09,14,6.30
2018,10,13,09,15,6.30
2018,10,13,09,16,6.40
2018,10,13,09,17,6.40
2018,10,13,09,18,6.50
2018,10,13,09,19,6.60
2018,10,13,09,20,6.60
2018,10,13,09,21,6.70
2018,10,13,09,22,6.80
2018,10,13,09,23,6.90
2018,10,13,09,24,6.90
2018,10,13,09,25,7.00
2018,10,13,09,26,7.00
2018,10,13,09,27,7.10
2018,10,13,09,28,7.20
2018,10,13,09,29,7.30
2018,10,13,09,30,7.40
2018,10,13,09,31,7.40
2018,10,13,09,32,7.50
2018,10,13,09,33,7.60
2018,10,13,09,34,7.70
2018,10,13,09,35,7.80
2018,10,13,09,36,7.80
2018,10,13,09,37,7.90
2018,10,13,09,38,8.00
2018,10,13,09,39,8.20
2018,10,13,09,40,8.30
2018,10,13,09,41,8.40
2018,10,13,09,42,8.50
2018,10,13,09,43,8.50
2018,10,13,09,44,8.60
2018,10,13,09,45,8.70
2018,10,13,09,46,8.80
2018,10,13,09,47,8.80
2018,10,13,09,48,8.90
2018,10,13,09,49,8.90
2018,10,13,09,50,9.00
2018,10,13,09,51,9.10
2018,10,13,09,52,9.20
2018,10,13,09,53,9.20
2018,10,13,09,54,9.30
2018,10,13,09,55,9.40
2018,10,13,09,56,9.50
2018,10,13,09,57,9.60
2018,10,13,09,58,9.70
2018,10,13,09,59,9.80
2018,10,13,10,00,9.90
2018,10,13,10,01,10.00
2018,10,13,10,02,10.10
2018,10,13,10,03,10.20
2018,10,13,10,04,10.30
2018,10,13,10,05,10.40
2018,10,13,10,06,10.50
2018,10,13,10,07,10.60
2018,10,13,10,08,10.70
2018,10,13,10,09,10.70
2018,10,13,10,10,10.80
2018,10,13,10,11,10.80
2018,10,13,10,12,10.90
2018,10,13,10,13,10.90
2018,10,13,10,14,11.00
2018,10,13,10,15,11.00
2018,10,13,10,16,11.10
2018,10,13,10,17,11.10
2018,10,13,10,18,11.20
2018,10,13,10,19,11.20
2018,10,13,10,20,11.30
2018,10,13,10,21,11.40
2018,10,13,10,22,11.50
2018,10,13,10,23,11.50
2018,10,13,10,24,11.60
2018,10,13,10,25,11.60
2018,10,13,10,26,11.70
2018,10,13,10,27,11.70
2018,10,13,10,28,11.80
2018,10,13,10,29,11.80
2018,10,13,10,30,11.90
2018,10,13,10,31,11.90
2018,10,13,10,32,11.90
2018,10,13,10,33,12.00
2018,10,13,10,34,12.00
2018,10,13,10,35,12.10
2018,10,13,10,36,12.20
2018,10,13,10,37,12.20
2018,10,13,10,38,12.30
2018,10,13,10,39,12.30
2018,10,13,10,40,12.40
2018,10,13,10,41,12.40
2018,10,13,10,42,12.50
2018,10,13,10,43,12.50
2018,10,13,10,44,12.60
2018,10,13,10,45,12.60
2018,10,13,10,46,12.60
2018,10,13,10,47,12.60
2018,10,13,10,48,12.70
2018,10,13,10,49,12.60
2018,10,13,10,50,12.70
2018,10,13,10,51,12.70
2018,10,13,10,52,12.70
2018,10,13,10,53,12.60
2018,10,13,10,54,12.70
2018,10,13,10,55,12.70
2018,10,13,10,56,12.70
2018,10,13,10,57,12.70
2018,10,13,10,58,12.70
2018,10,13,10,59,12.70
2018,10,13,11,00,12.80
2018,10,13,11,01,12.80
2018,10,13,11,02,12.80
2018,10,13,11,03,12.80
2018,10,13,11,04,12.80
2018,10,13,11,05,12.90
2018,10,13,11,06,12.80
2018,10,13,11,07,12.80
2018,10,13,11,08,12.80
2018,10,13,11,09,12.80
2018,10,13,11,10,12.90
2018,10,13,11,11,12.90
2018,10,13,11,12,12.90
2018,10,13,11,13,12.90
2018,10,13,11,14,12.90
2018,10,13,11,15,13.00
2018,10,13,11,16,13.00
2018,10,13,11,17,13.00
2018,10,13,11,18,13.00
2018,10,13,11,19,13.00
2018,10,13,11,20,13.10
2018,10,13,11,21,13.10
2018,10,13,11,22,13.10
2018,10,13,11,23,13.20
2018,10,13,11,24,13.20
2018,10,13,11,25,13.30
2018,10,13,11,26,13.30
2018,10,13,11,27,13.30
2018,10,13,11,28,13.40
2018,10,13,11,29,13.40
2018,10,13,11,30,13.40
2018,10,13,11,31,13.50
2018,10,13,11,32,13.50
2018,10,13,11,33,13.60
2018,10,13,11,34,13.60
2018,10,13,11,35,13.60
2018,10,13,11,36,13.70
2018,10,13,11,37,13.70
2018,10,13,11,38,13.70
2018,10,13,11,39,13.70
2018,10,13,11,40,13.80
2018,10,13,11,41,13.80
2018,10,13,11,42,13.80
2018,10,13,11,43,13.80
2018,10,13,11,44,13.80
2018,10,13,11,45,13.80
2018,10,13,11,46,13.80
2018,10,13,11,47,13.80
2018,10,13,11,48,13.80
2018,10,13,11,49,13.80
2018,10,13,11,50,13.80
2018,10,13,11,51,13.80
2018,10,13,11,52,13.80
2018,10,13,11,53,13.80
2018,10,13,11,54,13.70
2018,10,13,11,55,13.70
2018,10,13,11,56,13.70
2018,10,13,11,57,13.70
2018,10,13,11,58,13.70
2018,10,13,11,59,13.70
2018,10,13,12,00,13.80
2018,10,13,12,01,13.80
2018,10,13,12,02,13.80
2018,10,13,12,03,13.80
2018,10,13,12,04,13.80
2018,10,13,12,05,13.80
2018,10,13,12,06,13.80
2018,10,13,12,07,13.80
2018,10,13,12,08,13.80
2018,10,13,12,09,13.90
2018,10,13,12,10,13.90
2018,10,13,12,11,13.90
2018,10,13,12,12,14.00
2018,10,13,12,13,14.00
2018,10,13,12,14,14.00
2018,10,13,12,15,14.10
2018,10,13,12,16,14.10
2018,10,13,12,17,14.20
2018,10,13,12,18,14.20
2018,10,13,12,19,14.30
2018,10,13,12,20,14.30
2018,10,13,12,21,14.30
2018,10,13,12,22,14.30
2018,10,13,12,23,14.30
2018,10,13,12,24,14.40
2018,10,13,12,25,14.40
2018,10,13,12,26,14.40
2018,10,13,12,27,14.50
2018,10,13,12,28,14.50
2018,10,13,12,29,14.50
2018,10,13,12,30,14.40
2018,10,13,12,31,14.50
2018,10,13,12,32,14.50
2018,10,13,12,33,14.50
2018,10,13,12,34,14.50
2018,10,13,12,35,14.50
2018,10,13,12,36,14.60
2018,10,13,12,37,14.60
2018,10,13,12,38,14.60
2018,10,13,12,39,14.60
2018,10,13,12,40,14.60
2018,10,13,12,41,14.60
2018,10,13,12,42,14.60
2018,10,13,12,43,14.60
2018,10,13,12,44,14.60
2018,10,13,12,45,14.60
2018,10,13,12,46,14.70
2018,10,13,12,47,14.70
2018,10,13,12,48,14.70
2018,10,13,12,49,14.70
2018,10,13,12,50,14.70
2018,10,13,12,51,14.70
2018,10,13,12,52,14.70
2018,10,13,12,53,14.70
2018,10,13,12,54,14.70
2018,10,13,12,55,14.70
2018,10,13,12,56,14.70
2018,10,13,12,57,14.70
2018,10,13,12,58,14.60
2018,10,13,12,59,14.60
2018,10,13,13,00,14.60
2018,10,13,13,01,14.60
2018,10,13,13,02,14.60
2018,10,13,13,03,14.60
2018,10,13,13,04,14.60
2018,10,13,13,05,14.60
2018,10,13,13,06,14.60
2018,10,13,13,07,14.60
2018,10,13,13,08,14.50
2018,10,13,13,09,14.50
2018,10,13,13,10,14.40
2018,10,13,13,11,14.40
2018,10,13,13,12,14.40
2018,10,13,13,13,14.30
2018,10,13,13,14,14.30
2018,10,13,13,15,14.30
2018,10,13,13,16,14.30
2018,10,13,13,17,14.30
2018,10,13,13,18,14.30
2018,10,13,13,19,14.30
2018,10,13,13,20,14.30
2018,10,13,13,21,14.40
2018,10,13,13,22,14.40
2018,10,13,13,23,14.40
2018,10,13,13,24,14.50
2018,10,13,13,25,14.50
2018,10,13,13,26,14.50
2018,10,13,13,27,14.60
2018,10,13,13,28,14.60
2018,10,13,13,29,14.60
2018,10,13,13,30,14.70
2018,10,13,13,31,14.70
2018,10,13,13,32,14.80
2018,10,13,13,33,14.80
2018,10,13,13,34,14.80
2018,10,13,13,35,14.90
2018,10,13,13,36,14.90
2018,10,13,13,37,15.00
2018,10,13,13,38,15.00
2018,10,13,13,39,15.00
2018,10,13,13,40,15.10
2018,10,13,13,41,15.10
2018,10,13,13,42,15.10
2018,10,13,13,43,15.10
2018,10,13,13,44,15.10
2018,10,13,13,45,15.00
2018,10,13,13,46,15.00
2018,10,13,13,47,14.90
2018,10,13,13,48,14.90
2018,10,13,13,49,14.80
2018,10,13,13,50,14.80
2018,10,13,13,51,14.80
2018,10,13,13,52,14.70
2018,10,13,13,53,14.70
2018,10,13,13,54,14.70
2018,10,13,13,55,14.60
2018,10,13,13,56,14.60
2018,10,13,13,57,14.60
2018,10,13,13,58,14.50
2018,10,13,13,59,14.50
2018,10,13,14,00,14.50
2018,10,13,14,01,14.50
2018,10,13,14,02,14.60
2018,10,13,14,03,14.50
2018,10,13,14,04,14.50
2018,10,13,14,05,14.50
2018,10,13,14,06,14.40
2018,10,13,14,07,14.40
2018,10,13,14,08,14.40
2018,10,13,14,09,14.40
2018,10,13,14,10,14.40
2018,10,13,14,11,14.40
2018,10,13,14,12,14.40
2018,10,13,14,13,14.40
2018,10,13,14,14,14.40
2018,10,13,14,15,14.40
2018,10,13,14,16,14.40
2018,10,13,14,17,14.30
2018,10,13,14,18,14.30
2018,10,13,14,19,14.30
2018,10,13,14,20,14.40
2018,10,13,14,21,14.40
2018,10,13,14,22,14.40
2018,10,13,14,23,14.40
2018,10,13,14,24,14.50
2018,10,13,14,25,14.50
2018,10,13,14,26,14.50
2018,10,13,14,27,14.50
2018,10,13,14,28,14.60
2018,10,13,14,29,14.60
2018,10,13,14,30,14.60
2018,10,13,14,31,14.70
2018,10,13,14,32,14.70
2018,10,13,14,33,14.70
2018,10,13,14,34,14.70
2018,10,13,14,35,14.70
2018,10,13,14,36,14.80
2018,10,13,14,37,14.80
2018,10,13,14,38,14.80
2018,10,13,14,39,14.80
2018,10,13,14,40,14.80
2018,10,13,14,41,14.80
2018,10,13,14,42,14.80
2018,10,13,14,43,14.80
2018,10,13,14,44,14.80
2018,10,13,14,45,14.90
2018,10,13,14,46,14.80
2018,10,13,14,47,14.80
2018,10,13,14,48,14.80
2018,10,13,14,49,14.80
2018,10,13,14,50,14.80
2018,10,13,14,51,14.80
2018,10,13,14,52,14.80
2018,10,13,14,53,14.90
2018,10,13,14,54,14.90
2018,10,13,14,55,14.90
2018,10,13,14,56,14.90
2018,10,13,14,57,14.90
2018,10,13,14,58,14.90
2018,10,13,14,59,14.90
2018,10,13,15,00,14.90
2018,10,13,15,01,14.90
2018,10,13,15,02,14.90
2018,10,13,15,03,15.00
2018,10,13,15,04,15.00
2018,10,13,15,05,15.00
2018,10,13,15,06,15.00
2018,10,13,15,07,15.00
2018,10,13,15,08,15.00
2018,10,13,15,09,15.00
2018,10,13,15,10,15.10
2018,10,13,15,11,15.10
2018,10,13,15,12,15.10
2018,10,13,15,13,15.10
2018,10,13,15,14,15.10
2018,10,13,15,15,15.10
2018,10,13,15,16,15.10
2018,10,13,15,17,15.10
2018,10,13,15,18,15.10
2018,10,13,15,19,15.10
2018,10,13,15,20,15.20
2018,10,13,15,21,15.20
2018,10,13,15,22,15.20
2018,10,13,15,23,15.20
2018,10,13,15,24,15.10
2018,10,13,15,25,15.20
2018,10,13,15,26,15.10
2018,10,13,15,27,15.10
2018,10,13,15,28,15.20
2018,10,13,15,29,15.20
2018,10,13,15,30,15.20
2018,10,13,15,31,15.20
2018,10,13,15,32,15.20
2018,10,13,15,33,15.20
2018,10,13,15,34,15.20
2018,10,13,15,35,15.20
2018,10,13,15,36,15.20
2018,10,13,15,37,15.30
2018,10,13,15,38,15.30
2018,10,13,15,39,15.30
2018,10,13,15,40,15.30
2018,10,13,15,41,15.30
2018,10,13,15,42,15.40
2018,10,13,15,43,15.40
2018,10,13,15,44,15.50
2018,10,13,15,45,15.50
2018,10,13,15,46,15.60
2018,10,13,15,47,15.60
2018,10,13,15,48,15.70
2018,10,13,15,49,15.70
2018,10,13,15,50,15.80
2018,10,13,15,51,15.80
2018,10,13,15,52,15.80
2018,10,13,15,53,15.90
2018,10,13,15,54,15.90
2018,10,13,15,55,15.90
2018,10,13,15,56,16.00
2018,10,13,15,57,16.00
2018,10,13,15,58,16.00
2018,10,13,15,59,16.00
2018,10,13,16,00,16.00
2018,10,13,16,01,16.00
2018,10,13,16,02,16.10
2018,10,13,16,03,16.10
2018,10,13,16,04,16.10
2018,10,13,16,05,16.10
2018,10,13,16,06,16.00
2018,10,13,16,07,16.10
2018,10,13,16,08,16.10
2018,10,13,16,09,16.10
2018,10,13,16,10,16.10
2018,10,13,16,11,16.10
2018,10,13,16,12,16.10
2018,10,13,16,13,16.10
2018,10,13,16,14,16.10
2018,10,13,16,15,16.10
2018,10,13,16,16,16.10
2018,10,13,16,17,16.10
2018,10,13,16,18,16.10
2018,10,13,16,19,16.10
2018,10,13,16,20,16.10
2018,10,13,16,21,16.10
2018,10,13,16,22,16.10
2018,10,13,16,23,16.00
2018,10,13,16,24,16.00
2018,10,13,16,25,15.90
2018,10,13,16,26,15.90
2018,10,13,16,27,15.90
2018,10,13,16,28,15.90
2018,10,13,16,29,15.90
2018,10,13,16,30,15.90
2018,10,13,16,31,15.90
2018,10,13,16,32,15.80
2018,10,13,16,33,15.80
2018,10,13,16,34,15.80
2018,10,13,16,35,15.80
2018,10,13,16,36,15.80
2018,10,13,16,37,15.80
2018,10,13,16,38,15.80
2018,10,13,16,39,15.70
2018,10,13,16,40,15.70
2018,10,13,16,41,15.70
2018,10,13,16,42,15.70
2018,10,13,16,43,15.70
2018,10,13,16,44,15.70
2018,10,13,16,45,15.70
2018,10,13,16,46,15.70
2018,10,13,16,47,15.70
2018,10,13,16,48,15.60
2018,10,13,16,49,15.60
2018,10,13,16,50,15.60
2018,10,13,16,51,15.60
2018,10,13,16,52,15.60
2018,10,13,16,53,15.60
2018,10,13,16,54,15.60
2018,10,13,16,55,15.60
2018,10,13,16,56,15.60
2018,10,13,16,57,15.50
2018,10,13,16,58,15.50
2018,10,13,16,59,15.50
2018,10,13,17,00,15.40
2018,10,13,17,01,15.40
2018,10,13,17,02,15.40
2018,10,13,17,03,15.40
2018,10,13,17,04,15.40
2018,10,13,17,05,15.30
2018,10,13,17,06,15.30
2018,10,13,17,07,15.30
2018,10,13,17,08,15.30
2018,10,13,17,09,15.30
2018,10,13,17,10,15.20
2018,10,13,17,11,15.20
2018,10,13,17,12,15.20
2018,10,13,17,13,15.20
2018,10,13,17,14,15.10
2018,10,13,17,15,15.10
2018,10,13,17,16,15.10
2018,10,13,17,17,15.10
2018,10,13,17,18,15.00
2018,10,13,17,19,15.00
2018,10,13,17,20,14.90
2018,10,13,17,21,14.90
2018,10,13,17,22,14.80
2018,10,13,17,23,14.80
2018,10,13,17,24,14.80
2018,10,13,17,25,14.70
2018,10,13,17,26,14.70
2018,10,13,17,27,14.60
2018,10,13,17,28,14.60
2018,10,13,17,29,14.60
2018,10,13,17,30,14.50
2018,10,13,17,31,14.50
2018,10,13,17,32,14.50
2018,10,13,17,33,14.50
2018,10,13,17,34,14.40
2018,10,13,17,35,14.40
2018,10,13,17,36,14.40
2018,10,13,17,37,14.40
2018,10,13,17,38,14.30
2018,10,13,17,39,14.30
2018,10,13,17,40,14.30
2018,10,13,17,41,14.30
2018,10,13,17,42,14.20
2018,10,13,17,43,14.20